Weather Roundup
Issued by NWS Springfield, MO

Home | Current Version | Previous Version | Text Only | Print | Product List | Glossary On
Versions: 1 2 3 4 5 6 7 8 9 10 11 12 13 14 15 16 17 18 19 20 21 22 23 24 25 26 27 28 29 30 31 32 33 34 35 36 37 38 39 40 41 42 43 44 45 46 47 48 49 50
000
NZUS99 KSGF 261159
HRRSGF

HOURLY WEATHER
NATIONAL WEATHER SERVICE SPRINGFIELD MO
700 AM CDT SAT JUL 26 2014

......SGF CWA......

CITY           SKY/WX    TMP DP  RH WIND       PRES   REMARKS
SPRINGFIELD    MOCLDY    73  71  93 S12       29.95R FOG
6HR MIN TEMP:  73; 6HR MAX TEMP:  75;

JOPLIN         PTCLDY    77  71  82 S14       29.92S
6HR MIN TEMP:  77; 6HR MAX TEMP:  80;

WEST PLAINS    PTCLDY    71  69  93 SW6       29.99S FOG
6HR MIN TEMP:  69; 6HR MAX TEMP:  72;

ROLLA          CLOUDY    73  70  90 SW15      29.91R
6HR MIN TEMP:  72; 6HR MAX TEMP:  74;

OSAGE BEACH    PTCLDY    79  70  73 SW10      29.90S
BRANSON        PTCLDY    73  72  94 SW7       29.99R

......SURROUNDING SGF CWA......

CITY           SKY/WX    TMP DP  RH WIND       PRES   REMARKS
CHANUTE        MOCLDY    75  71  87 S13       29.88S
PARSONS        PTCLDY    76  71  85 S7        29.90R
COFFEYVILLE    PTCLDY    75  72  90 S10       29.89S
EMPORIA        MOCLDY    79  65  62 S14       29.83R
SILOAM SPRINGS PTCLDY    73  66  78 S10       30.00R
HARRISON AR    CLEAR     75  70  84 S7        29.99S
NEAR YELLVILLE CLEAR     72  70  94 CALM      29.98R

......KANSAS AND MISSOURI......

CITY           SKY/WX    TMP DP  RH WIND       PRES   REMARKS
KANSAS CTY INT MOCLDY    76  70  82 S6        29.81S
DOWNTOWN KC    MOCLDY    82  70  66 SW8       29.81R
COLUMBIA       PTCLDY    74  72  93 S7        29.88R
SEDALIA        PTCLDY    78  71  79 SW17      29.86S HAZE
ST JOSEPH      PTCLDY    76  74  93 S5        29.79S
ST LOUIS       MOSUNNY   73  66  78 S3        29.89R
SPIRIT OF STL  PTSUNNY   74  68  81 CALM      29.87S
KIRKSVILLE     CLEAR     74  72  93 SW6       29.82F FOG
WICHITA        MOCLDY    75  65  70 S12       29.85S
TOPEKA         CLOUDY    82  68  62 S6        29.79S
OLATHE         MOCLDY    78  70  76 S12       29.82S

......TENNESSEE......

CITY           SKY/WX    TMP DP  RH WIND       PRES   REMARKS
MEMPHIS        PTCLDY    73  66  78 S6        30.02R
NASHVILLE      MOSUNNY   67  64  90 CALM      30.03R

......ARKANSAS.......

CITY           SKY/WX    TMP DP  RH WIND       PRES   REMARKS
FAYETTEVILLE   CLEAR     75  71  87 S10       30.00R
FT SMITH       CLEAR     74  72  93 E3        29.98R FOG
LITTLE ROCK    PTCLDY    73  70  90 S3        30.02R FOG

......OKLAHOMA.......

CITY           SKY/WX    TMP DP  RH WIND       PRES   REMARKS
TULSA          PTCLDY    78  71  79 S9        29.91R
PONCA CITY     PTCLDY    74  67  78 S7        29.90R
MCALESTER      PTCLDY    77  71  82 S6        29.98R
OKLAHOMA CITY  PTCLDY    74  66  76 S9        29.94R

......IOWA............

CITY           SKY/WX    TMP DP  RH WIND       PRES   REMARKS
DES MOINES     CLOUDY    71  68  90 CALM      29.81F
QUAD CITIES    CLOUDY    68  63  84 E5        29.82S

......ILLINOIS........

CITY           SKY/WX    TMP DP  RH WIND       PRES   REMARKS
QUINCY         MOSUNNY   74  70  87 SW9       29.83S
CHICAGO        CLOUDY    70  59  68 S7        29.84F




USA.gov is the U.S. government's official web portal to all federal, state and local government web resources and services.